AUA154 LOWG-LOWW

Flight info

Callsign AUA154
Flight time 0h 21m
Altitude 13000
Route ROPAG DCT NIGSI NIGSI2W
Aircraft A320/M-SDE3FGHIRWY/LB1

Departure

Time 2026-05-04 17:03
Airport Graz Airport (LOWG)

Arrival

Time 2026-05-04 17:24
Airport Vienna International Airport (LOWW)
Time Latitude Longitude Altitude Speed Heading
2026-05-04 16:55 46.99532 15.44339 1112 ft 0 kts 126°
2026-05-04 16:58 46.99523 15.44310 1112 ft 7 kts 261°
2026-05-04 16:58 46.99567 15.44239 1113 ft 11 kts 347°
2026-05-04 16:59 46.99686 15.44206 1109 ft 6 kts 349°
2026-05-04 17:00 46.99918 15.44142 1115 ft 20 kts 349°
2026-05-04 17:00 47.00262 15.44046 1114 ft 9 kts 346°
2026-05-04 17:01 47.00335 15.43960 1117 ft 5 kts 304°
2026-05-04 17:01 47.00360 15.43906 1117 ft 4 kts 304°
2026-05-04 17:02 47.00429 15.43703 1117 ft 10 kts 269°
2026-05-04 17:02 47.00296 15.43637 1121 ft 30 kts 169°
2026-05-04 17:03 46.99839 15.43764 1115 ft 100 kts 169°
2026-05-04 17:03 46.98961 15.44005 1103 ft 155 kts 169°
2026-05-04 17:03 46.96830 15.44517 2384 ft 156 kts 171°
2026-05-04 17:04 46.95500 15.47147 3044 ft 212 kts 88°
2026-05-04 17:04 46.97438 15.51004 3577 ft 271 kts 40°
2026-05-04 17:05 47.00412 15.54752 5099 ft 288 kts 43°
2026-05-04 17:05 47.03401 15.58763 6889 ft 293 kts 43°
2026-05-04 17:06 47.06448 15.62852 8557 ft 300 kts 43°
2026-05-04 17:06 47.08001 15.64926 9403 ft 303 kts 42°
2026-05-04 17:07 47.10648 15.68445 10420 ft 322 kts 42°
2026-05-04 17:07 47.11799 15.69972 10573 ft 338 kts 42°
2026-05-04 17:07 47.14209 15.73177 10879 ft 366 kts 42°
2026-05-04 17:07 47.16124 15.75730 11415 ft 375 kts 42°
2026-05-04 17:08 47.18066 15.78322 11948 ft 379 kts 42°
2026-05-04 17:08 47.21997 15.83571 12880 ft 385 kts 43°
2026-05-04 17:08 47.24003 15.86250 12969 ft 399 kts 43°
2026-05-04 17:09 47.26111 15.89073 12980 ft 417 kts 43°
2026-05-04 17:09 47.28276 15.91971 12984 ft 423 kts 43°
2026-05-04 17:09 47.30451 15.94890 12975 ft 423 kts 43°
2026-05-04 17:10 47.34824 16.00726 12981 ft 426 kts 40°
2026-05-04 17:10 47.42796 16.06079 12977 ft 423 kts
2026-05-04 17:11 47.45737 16.06262 12983 ft 424 kts
2026-05-04 17:11 47.48687 16.06373 12986 ft 424 kts
2026-05-04 17:11 47.54589 16.06544 13001 ft 424 kts 359°
2026-05-04 17:12 47.57540 16.06620 12995 ft 424 kts 359°
2026-05-04 17:12 47.63280 16.06769 12632 ft 400 kts 359°
2026-05-04 17:13 47.71511 16.06988 11883 ft 390 kts 359°
2026-05-04 17:14 47.79619 16.07210 11135 ft 386 kts 359°
2026-05-04 17:14 47.82264 16.07281 10894 ft 386 kts 359°
2026-05-04 17:14 47.87598 16.07429 10412 ft 381 kts 359°
2026-05-04 17:15 47.90246 16.07501 10172 ft 380 kts 359°
2026-05-04 17:15 47.95433 16.07643 9818 ft 358 kts 359°
2026-05-04 17:16 48.00200 16.07783 9555 ft 329 kts 359°
2026-05-04 17:16 48.06724 16.07961 9159 ft 301 kts 358°
2026-05-04 17:17 48.08813 16.08017 8855 ft 299 kts 359°
2026-05-04 17:17 48.14529 16.11115 7730 ft 282 kts 25°
2026-05-04 17:18 48.16246 16.12404 7364 ft 271 kts 25°
2026-05-04 17:18 48.19573 16.14848 6426 ft 263 kts 25°
2026-05-04 17:19 48.21962 16.18625 5433 ft 250 kts 75°
2026-05-04 17:19 48.21879 16.23581 4872 ft 234 kts 117°
2026-05-04 17:20 48.20507 16.27889 4301 ft 230 kts 120°
2026-05-04 17:20 48.19110 16.32224 3689 ft 230 kts 121°
2026-05-04 17:20 48.18426 16.34348 3387 ft 229 kts 121°
2026-05-04 17:21 48.17111 16.38428 2799 ft 205 kts 121°
2026-05-04 17:21 48.15947 16.42031 2288 ft 179 kts 121°
2026-05-04 17:22 48.15435 16.43620 2048 ft 160 kts 122°
2026-05-04 17:22 48.14975 16.45042 1826 ft 144 kts 123°
2026-05-04 17:23 48.13712 16.48895 1284 ft 133 kts 121°
2026-05-04 17:23 48.13311 16.50141 1099 ft 135 kts 120°
2026-05-04 17:23 48.12503 16.52689 748 ft 132 kts 120°
2026-05-04 17:24 48.12103 16.53885 622 ft 125 kts 119°
2026-05-04 17:24 48.11458 16.55864 609 ft 42 kts 115°
2026-05-04 17:25 48.11358 16.56176 612 ft 23 kts 114°
2026-05-04 17:25 48.11293 16.56582 609 ft 19 kts 90°
2026-05-04 17:26 48.11362 16.56795 609 ft 12 kts 21°
2026-05-04 17:26 48.11543 16.56929 612 ft 7 kts 37°
2026-05-04 17:27 48.11537 16.57047 614 ft 8 kts 115°
2026-05-04 17:27 48.11476 16.57161 618 ft 7 kts 184°
2026-05-04 17:28 48.11435 16.57136 609 ft 0 kts 205°